Location: Zagreb
(45.8000°N, 16.0000°E)
Time: 17:32:23
(UTC+01:00)

Tiros 1 despin weight - Pass Details

Date: 02 February 2020
Orbit: 594 x 642 km, 48.2° (Epoch: 25 February)

Event Time Altitude Azimuth Distance (km) Brightness Sun altitude
Rises 14:33:17 0° 285° (WNW) 2,890 ? 19.4°
Reaches altitude 10° 14:35:59 10° 271° (W) 1,990 ? 19.1°
Maximum altitude 14:39:30 22° 220° (SW) 1,370 ? 18.8°
Drops below altitude 10° 14:43:03 10° 170° (S) 2,004 ? 18.4°
Sets 14:45:47 0° 155° (SSE) 2,915 ? 18.1°
